259  
ASUS42 KMHX 210025  
RWRMHX  
WEATHER ROUNDUP FOR EASTERN NORTH CAROLINA  
NATIONAL WEATHER SERVICE NEWPORT/MOREHEAD CITY NC  
700 PM EST MON NOV 20 2017  
 
NOTE: "FAIR" INDICATES FEW OR NO CLOUDS BELOW 12,000 FEET  
WITH NO SIGNIFICANT WEATHER AND/OR S TO VISIBILITY
 
 
NCZ015>017-031-032-045>047-102-103-210100-  
NORTH COAST  
 
CITY SKY/WX TMP DP RH WIND PRES REMARKS
 
EDENTON CLEAR 40 36 86 CALM 30.26S  
ELIZABETH CITY CLEAR 38 34 85 S3 30.25S  
KITTY HAWK CLEAR 44 32 63 CALM 30.25S  
MANTEO CLEAR 38 35 87 CALM 30.26S  
 

 
 
NCZ045>047-081-094-103-104-210100-  
CENTRAL COAST  
 
CITY SKY/WX TMP DP RH WIND PRES REMARKS
 
FRISCO CLEAR 38 35 89 E3 30.26S  
 

 
 
NCZ095-097-098-100-101-210100-  
SOUTHERN COAST  
 
CITY SKY/WX TMP DP RH WIND PRES REMARKS
 
BEAUFORT PTCLDY 45 38 76 E3 30.26S  
CEDAR ISLAND NOT AVBL  
JACKSONVILLE CLOUDY 40 38 93 CALM 30.25S  
PINEY ISLAND N/A N/A N/A N/A SW3 30.26R  
WILMINGTON PTCLDY 43 37 79 CALM 30.25S  
 

 
 
NCZ011>013-027>030-043-044-078>080-089-090>093-098-210100-  
COASTAL PLAIN  
 
CITY SKY/WX TMP DP RH WIND PRES REMARKS
 
AHOSKIE CLEAR 37 33 84 CALM 30.25S  
CLINTON CLOUDY 41 34 76 CALM 30.25S  
ELIZABETHTOWN NOT AVBL  
GOLDSBORO CLOUDY 43 32 65 CALM 30.23R  
GREENVILLE CLEAR 41 34 75 CALM 30.26S  
HAVELOCK PTCLDY 43 39 86 E3 30.27R  
KENANSVILLE PTCLDY 37 32 81 CALM 30.25S  
KINSTON CLEAR 37 34 87 CALM 30.25S  
NEW BERN CLEAR 39 36 89 CALM 30.26S  
RICHLANDS CLOUDY 39 36 89 CALM 30.26S  
ROCKY MOUNT CLEAR 39 35 86 CALM 30.25R  
WASHINGTON CLEAR 40 36 85 CALM 30.26R  
WHITEVILLE CLOUDY 43 37 78 CALM 30.24S  
 

 
 
AMZ130-135-150-152-154-156-158-170-250-252-270-ANZ085-086-088-633-658-670-210100-  
MARINE OBSERVATIONS  
 
STATION/POSITION TIME TEMP WIND PRES WAVE SWELL
 
AIR SEA DIR/SP/G HT/PER HT/PER  
(UTC) (F) (DEG/KT/KT) (MB) (FT/S) (FT/S)  
CHESAPEAKE LIGHT NOT AVBL  
64 E VA BEACH 2350 51 60 310/ 6/ 8 1024.9 3/ 6 3/ 6  
DUCK 0000 50 60 200/ 5/ 6 1024.0  
2 E DUCK 0000 61 N/A 2/ 7  
OREGON INLET 0000 48 56 310/ 2/ 2 1024.6  
13E OREGON INLT 2348 62 N/A 4/ 7 3/ 7  
HATTERAS CG 0000 49 58 60/ 3/ 4 1024.4  
DIAMOND BUOY 0010 54 69 20/ 4/ 8 1025.1  
CAPE LOOKOUT 0000 10/ 6/ 7 1024.8  
BEAUFORT LAB 0000 49 59 50/ 4/ 5 1024.5  
30 SE NEW RVR IN 0008 56 68 90/ 6/ 8 1024.5  
30 SE NEW RVR IN 0000 68 N/A 2/ 9  
27 SE WRIGHTSVLE 0008 56 68 70/ 4/ 10 1024.1  
5 SE WRIGHTSVLE 0008 57 64 90/ 4/ 6 1024.0  
225 S CAPE HAT 2350 67 76 60/ 14/ 17 1022.6 5/ 7 3/ 7  
41 SE CHARLESTON 0010 62 73 70/ 12/ 16 1023.3  
 

 
 
 
CLICK HERE TO GO TO PREVIOUS BULLETINS.

The Nexlab NC Page Main Text Page